| time (UTC) | temp C | wind direction | speed KPH | gust KPH | rain 1hr cm | rain 24hr cm | rain mn cm | humidity % | barometer mb |
| 20260906221029 | 30 | 113 | 9.7 | 16.1 | 0.00 | 0.00 | 0.00 | 37 | 1010.6 |
| 20260906220527 | 31 | 108 | 9.7 | 16.1 | 0.00 | 0.00 | 0.00 | 36 | 1010.6 |
| 20260906220046 | 31 | 97 | 6.4 | 19.3 | 0.00 | 0.00 | 0.00 | 36 | 1010.7 |
| 20260906215526 | 31 | 92 | 11.3 | 19.3 | 0.00 | 0.00 | 0.00 | 36 | 1010.7 |
| 20260906215025 | 31 | 84 | 9.7 | 19.3 | 0.00 | 0.00 | 0.00 | 36 | 1010.7 |
| 20260906214545 | 31 | 105 | 8.0 | 20.9 | 0.00 | 0.00 | 0.00 | 36 | 1010.7 |
| 20260906214026 | 31 | 92 | 8.0 | 20.9 | 0.00 | 0.00 | 0.00 | 36 | 1010.7 |
| 20260906213524 | 31 | 54 | 9.7 | 17.7 | 0.00 | 0.00 | 0.00 | 37 | 1010.9 |
| 20260906213100 | 30 | 112 | 1.6 | 16.1 | 0.00 | 0.00 | 0.00 | 37 | 1011.0 |
| 20260906212524 | 30 | 10 | 6.4 | 16.1 | 0.00 | 0.00 | 0.00 | 37 | 1011.1 |
| 20260906212026 | 30 | 109 | 6.4 | 19.3 | 0.00 | 0.00 | 0.00 | 36 | 1011.3 |
| 20260906211557 | 30 | 37 | 8.0 | 19.3 | 0.00 | 0.00 | 0.00 | 37 | 1011.4 |
| 20260906211033 | 30 | 100 | 8.0 | 16.1 | 0.00 | 0.00 | 0.00 | 38 | 1011.4 |
| 20260906210527 | 30 | 42 | 3.2 | 16.1 | 0.00 | 0.00 | 0.00 | 37 | 1011.4 |
| 20260906210051 | 30 | 48 | 4.8 | 16.1 | 0.00 | 0.00 | 0.00 | 37 | 1011.6 |
| 20260906205525 | 30 | 65 | 8.0 | 16.1 | 0.00 | 0.00 | 0.00 | 37 | 1011.7 |
| 20260906205024 | 30 | 24 | 4.8 | 16.1 | 0.00 | 0.00 | 0.00 | 38 | 1011.6 |
| 20260906204554 | 30 | 54 | 11.3 | 16.1 | 0.00 | 0.00 | 0.00 | 37 | 1011.8 |
| 20260906204024 | 30 | 168 | 1.6 | 16.1 | 0.00 | 0.00 | 0.00 | 37 | 1011.8 |
| 20260906203525 | 30 | 86 | 8.0 | 17.7 | 0.00 | 0.00 | 0.00 | 37 | 1012.0 |
| 20260906203101 | 30 | 63 | 1.6 | 17.7 | 0.00 | 0.00 | 0.00 | 37 | 1011.9 |
| 20260906202530 | 30 | 52 | 4.8 | 17.7 | 0.00 | 0.00 | 0.00 | 38 | 1012.0 |
| 20260906202031 | 30 | 69 | 9.7 | 17.7 | 0.00 | 0.00 | 0.00 | 37 | 1012.0 |
| 20260906201559 | 30 | 45 | 9.7 | 19.3 | 0.00 | 0.00 | 0.00 | 37 | 1012.0 |
| 20260906201025 | 30 | 103 | 3.2 | 19.3 | 0.00 | 0.00 | 0.00 | 38 | 1012.0 |
| 20260906200525 | 30 | 63 | 6.4 | 16.1 | 0.00 | 0.00 | 0.00 | 38 | 1012.2 |
| 20260906200049 | 29 | 143 | 3.2 | 14.5 | 0.00 | 0.00 | 0.00 | 39 | 1012.3 |
| 20260906195525 | 29 | 61 | 4.8 | 12.9 | 0.00 | 0.00 | 0.00 | 40 | 1012.4 |
| 20260906195029 | 28 | 64 | 3.2 | 16.1 | 0.00 | 0.00 | 0.00 | 41 | 1012.4 |
| 20260906194543 | 28 | 34 | 3.2 | 16.1 | 0.00 | 0.00 | 0.00 | 41 | 1012.4 |
| 20260906194025 | 28 | 122 | 4.8 | 12.9 | 0.00 | 0.00 | 0.00 | 41 | 1012.5 |
| 20260906193530 | 28 | 41 | 4.8 | 17.7 | 0.00 | 0.00 | 0.00 | 41 | 1012.7 |
| 20260906193106 | 28 | 32 | 3.2 | 17.7 | 0.00 | 0.00 | 0.00 | 42 | 1012.7 |
| 20260906192527 | 28 | 32 | 4.8 | 14.5 | 0.00 | 0.00 | 0.00 | 41 | 1012.7 |
| 20260906192027 | 28 | 105 | 4.8 | 11.3 | 0.00 | 0.00 | 0.00 | 42 | 1013.0 |
| 20260906191556 | 28 | 82 | 3.2 | 12.9 | 0.00 | 0.00 | 0.00 | 42 | 1013.0 |
| 20260906191026 | 28 | 97 | 3.2 | 12.9 | 0.00 | 0.00 | 0.00 | 43 | 1013.2 |
| 20260906190525 | 28 | 113 | 3.2 | 9.7 | 0.00 | 0.00 | 0.00 | 43 | 1013.2 |
| 20260906190047 | 27 | 207 | 3.2 | 16.1 | 0.00 | 0.00 | 0.00 | 44 | 1013.3 |
| 20260906185529 | 27 | 0 | 3.2 | 16.1 | 0.00 | 0.00 | 0.00 | 44 | 1013.3 |
| 20260906185025 | 27 | 34 | 6.4 | 14.5 | 0.00 | 0.00 | 0.00 | 44 | 1013.5 |
| 20260906184547 | 27 | 34 | 4.8 | 14.5 | 0.00 | 0.00 | 0.00 | 45 | 1013.6 |
| 20260906184026 | 27 | 20 | 1.6 | 14.5 | 0.00 | 0.00 | 0.00 | 46 | 1013.5 |
| 20260906183526 | 26 | 51 | 3.2 | 16.1 | 0.00 | 0.00 | 0.00 | 47 | 1013.8 |
| 20260906183052 | 26 | 0 | 4.8 | 16.1 | 0.00 | 0.00 | 0.00 | 47 | 1013.8 |
| 20260906182531 | 26 | 26 | 3.2 | 16.1 | 0.00 | 0.00 | 0.00 | 47 | 1013.9 |
| 20260906182030 | 26 | 56 | 4.8 | 14.5 | 0.00 | 0.00 | 0.00 | 47 | 1014.0 |
| 20260906181624 | 26 | 41 | 6.4 | 14.5 | 0.00 | 0.00 | 0.00 | 48 | 1014.0 |
| 20260906181026 | 26 | 38 | 1.6 | 8.0 | 0.00 | 0.00 | 0.00 | 50 | 1014.1 |
| 20260906180529 | 25 | 346 | 1.6 | 9.7 | 0.00 | 0.00 | 0.00 | 51 | 1014.2 |
| 20260906180048 | 25 | 0 | 3.2 | 11.3 | 0.00 | 0.00 | 0.00 | 51 | 1014.3 |
| 20260906175526 | 25 | 329 | 3.2 | 11.3 | 0.00 | 0.00 | 0.00 | 51 | 1014.4 |
| 20260906175030 | 25 | 61 | 4.8 | 12.9 | 0.00 | 0.00 | 0.00 | 52 | 1014.5 |
| 20260906174549 | 25 | 35 | 3.2 | 12.9 | 0.00 | 0.00 | 0.00 | 52 | 1014.6 |
| 20260906174027 | 25 | 117 | 1.6 | 6.4 | 0.00 | 0.00 | 0.00 | 53 | 1014.8 |
| 20260906173533 | 24 | 36 | 1.6 | 8.0 | 0.00 | 0.00 | 0.00 | 54 | 1014.9 |
| 20260906173053 | 23 | 30 | 3.2 | 8.0 | 0.00 | 0.00 | 0.00 | 55 | 1014.9 |
| 20260906172526 | 23 | 0 | 3.2 | 8.0 | 0.00 | 0.00 | 0.00 | 55 | 1015.0 |
| 20260906172025 | 23 | 333 | 3.2 | 11.3 | 0.00 | 0.00 | 0.00 | 55 | 1015.1 |
| 20260906171603 | 23 | 32 | 3.2 | 11.3 | 0.00 | 0.00 | 0.00 | 58 | 1015.0 |
| 20260906171025 | 23 | 43 | 4.8 | 12.9 | 0.00 | 0.00 | 0.00 | 57 | 1015.1 |
| 20260906170527 | 23 | 360 | 3.2 | 14.5 | 0.00 | 0.00 | 0.00 | 57 | 1015.2 |
| 20260906170057 | 23 | 360 | 6.4 | 14.5 | 0.00 | 0.00 | 0.00 | 58 | 1015.3 |
| 20260906165528 | 23 | 360 | 4.8 | 9.7 | 0.00 | 0.00 | 0.00 | 58 | 1015.3 |
| 20260906165034 | 22 | 360 | 4.8 | 12.9 | 0.00 | 0.00 | 0.00 | 59 | 1015.4 |
| 20260906164546 | 22 | 360 | 4.8 | 12.9 | 0.00 | 0.00 | 0.00 | 59 | 1015.5 |
| 20260906164026 | 22 | 360 | 3.2 | 14.5 | 0.00 | 0.00 | 0.00 | 60 | 1015.4 |
| 20260906163524 | 22 | 360 | 4.8 | 14.5 | 0.00 | 0.00 | 0.00 | 60 | 1015.5 |
| 20260906163057 | 22 | 360 | 1.6 | 16.1 | 0.00 | 0.00 | 0.00 | 60 | 1015.7 |
| 20260906162528 | 22 | 360 | 4.8 | 16.1 | 0.00 | 0.00 | 0.00 | 60 | 1015.6 |
| 20260906162027 | 21 | 360 | 4.8 | 16.1 | 0.00 | 0.00 | 0.00 | 62 | 1015.7 |
| 20260906161549 | 21 | 360 | 4.8 | 14.5 | 0.00 | 0.00 | 0.00 | 62 | 1015.6 |
| 20260906161027 | 21 | 360 | 4.8 | 9.7 | 0.00 | 0.00 | 0.00 | 62 | 1015.7 |
| 20260906160526 | 21 | 360 | 3.2 | 9.7 | 0.00 | 0.00 | 0.00 | 62 | 1015.8 |
| 20260906160049 | 21 | 360 | 4.8 | 9.7 | 0.00 | 0.00 | 0.00 | 62 | 1015.8 |
| 20260906155527 | 21 | 360 | 4.8 | 8.0 | 0.00 | 0.00 | 0.00 | 61 | 1015.8 |
| 20260906155026 | 21 | 360 | 3.2 | 9.7 | 0.00 | 0.00 | 0.00 | 62 | 1015.7 |
| 20260906154545 | 21 | 360 | 3.2 | 9.7 | 0.00 | 0.00 | 0.00 | 59 | 1015.7 |
| 20260906154028 | 21 | 360 | 3.2 | 9.7 | 0.00 | 0.00 | 0.00 | 60 | 1015.8 |
| 20260906153528 | 20 | 360 | 4.8 | 9.7 | 0.00 | 0.00 | 0.00 | 59 | 1015.8 |
| 20260906153049 | 20 | 360 | 4.8 | 9.7 | 0.00 | 0.00 | 0.00 | 60 | 1015.8 |
| 20260906152526 | 20 | 360 | 3.2 | 9.7 | 0.00 | 0.00 | 0.00 | 57 | 1015.7 |
| 20260906152026 | 20 | 360 | 4.8 | 9.7 | 0.00 | 0.00 | 0.00 | 57 | 1015.8 |
| 20260906151553 | 20 | 360 | 4.8 | 8.0 | 0.00 | 0.00 | 0.00 | 57 | 1015.8 |
| 20260906151029 | 19 | 360 | 3.2 | 8.0 | 0.00 | 0.00 | 0.00 | 58 | 1015.8 |
| 20260906150526 | 19 | 360 | 1.6 | 6.4 | 0.00 | 0.00 | 0.00 | 58 | 1015.9 |
| 20260906150048 | 18 | 0 | 1.6 | 6.4 | 0.00 | 0.00 | 0.00 | 59 | 1015.9 |
| 20260906145524 | 18 | 360 | 1.6 | 6.4 | 0.00 | 0.00 | 0.00 | 60 | 1015.9 |
| 20260906145027 | 18 | 360 | 3.2 | 6.4 | 0.00 | 0.00 | 0.00 | 61 | 1015.8 |
| 20260906144608 | 17 | 360 | 3.2 | 6.4 | 0.00 | 0.00 | 0.00 | 62 | 1015.9 |
| 20260906144024 | 17 | 360 | 0.0 | 4.8 | 0.00 | 0.00 | 0.00 | 63 | 1016.1 |
| 20260906143526 | 17 | 0 | 0.0 | 3.2 | 0.00 | 0.00 | 0.00 | 64 | 1016.1 |
| 20260906143101 | 16 | 0 | 0.0 | 0.0 | 0.00 | 0.00 | 0.00 | 66 | 1016.1 |
| 20260906142525 | 16 | 0 | 0.0 | 0.0 | 0.00 | 0.00 | 0.00 | 68 | 1016.0 |
| 20260906142028 | 15 | 0 | 0.0 | 0.0 | 0.00 | 0.00 | 0.00 | 70 | 1016.0 |
| 20260906141551 | 15 | 0 | 0.0 | 0.0 | 0.00 | 0.00 | 0.00 | 74 | 1016.1 |
| 20260906141026 | 14 | 0 | 0.0 | 0.0 | 0.00 | 0.00 | 0.00 | 78 | 1016.1 |
| 20260906140525 | 13 | 0 | 0.0 | 0.0 | 0.00 | 0.00 | 0.00 | 80 | 1016.1 |
| 20260906140044 | 13 | 0 | 0.0 | 0.0 | 0.00 | 0.00 | 0.00 | 84 | 1016.1 |
| 20260906135528 | 12 | 0 | 0.0 | 0.0 | 0.00 | 0.00 | 0.00 | 86 | 1016.1 |
| 20260906135026 | 11 | 0 | 0.0 | 0.0 | 0.00 | 0.00 | 0.00 | 88 | 1016.0 |
| 20260906134542 | 10 | 0 | 0.0 | 0.0 | 0.00 | 0.00 | 0.00 | 88 | 1016.1 |
| 20260906134024 | 10 | 0 | 0.0 | 0.0 | 0.00 | 0.00 | 0.00 | 89 | 1016.1 |
| 20260906133525 | 10 | 0 | 0.0 | 0.0 | 0.00 | 0.00 | 0.00 | 87 | 1016.1 |
| 20260906133104 | 10 | 0 | 0.0 | 0.0 | 0.00 | 0.00 | 0.00 | 88 | 1015.9 |
| 20260906132525 | 9 | 0 | 0.0 | 0.0 | 0.00 | 0.00 | 0.00 | 88 | 1016.1 |
| 20260906132026 | 9 | 0 | 0.0 | 0.0 | 0.00 | 0.00 | 0.00 | 87 | 1016.1 |
| 20260906131549 | 9 | 0 | 0.0 | 0.0 | 0.00 | 0.00 | 0.00 | 89 | 1016.1 |
| 20260906131026 | 8 | 0 | 0.0 | 0.0 | 0.00 | 0.00 | 0.00 | 89 | 1016.1 |
| 20260906130527 | 8 | 0 | 0.0 | 0.0 | 0.00 | 0.00 | 0.00 | 88 | 1016.1 |
| 20260906130051 | 8 | 0 | 0.0 | 0.0 | 0.00 | 0.00 | 0.00 | 86 | 1016.0 |
| 20260906125525 | 8 | 0 | 0.0 | 0.0 | 0.00 | 0.00 | 0.00 | 85 | 1016.0 |
| 20260906125025 | 9 | 0 | 0.0 | 0.0 | 0.00 | 0.00 | 0.00 | 85 | 1015.9 |
| 20260906124552 | 9 | 0 | 0.0 | 1.6 | 0.00 | 0.00 | 0.00 | 87 | 1015.8 |
| 20260906124027 | 9 | 0 | 0.0 | 3.2 | 0.00 | 0.00 | 0.00 | 84 | 1015.9 |
| 20260906123524 | 10 | 0 | 0.0 | 6.4 | 0.00 | 0.00 | 0.00 | 84 | 1015.9 |
| 20260906123050 | 10 | 0 | 1.6 | 6.4 | 0.00 | 0.00 | 0.00 | 88 | 1015.7 |
| 20260906122526 | 10 | 360 | 1.6 | 4.8 | 0.00 | 0.00 | 0.00 | 86 | 1015.6 |
| 20260906122026 | 10 | 0 | 0.0 | 4.8 | 0.00 | 0.00 | 0.00 | 84 | 1015.6 |
| 20260906121547 | 10 | 0 | 0.0 | 4.8 | 0.00 | 0.00 | 0.00 | 84 | 1015.5 |
| 20260906121028 | 10 | 360 | 1.6 | 4.8 | 0.00 | 0.00 | 0.00 | 87 | 1015.5 |
| 20260906120526 | 10 | 360 | 1.6 | 6.4 | 0.00 | 0.00 | 0.00 | 87 | 1015.5 |
| 20260906120048 | 10 | 360 | 3.2 | 6.4 | 0.00 | 0.00 | 0.00 | 88 | 1015.3 |
| 20260906115525 | 9 | 360 | 0.0 | 0.0 | 0.00 | 0.00 | 0.00 | 86 | 1015.4 |
| 20260906115024 | 9 | 0 | 0.0 | 0.0 | 0.00 | 0.00 | 0.00 | 85 | 1015.4 |
| 20260906114558 | 10 | 0 | 0.0 | 0.0 | 0.00 | 0.00 | 0.00 | 84 | 1015.5 |
| 20260906114024 | 10 | 0 | 0.0 | 0.0 | 0.00 | 0.00 | 0.00 | 87 | 1015.3 |
| 20260906113526 | 10 | 0 | 0.0 | 0.0 | 0.00 | 0.00 | 0.00 | 88 | 1015.2 |
| 20260906113050 | 9 | 0 | 0.0 | 0.0 | 0.00 | 0.00 | 0.00 | 85 | 1015.1 |
| 20260906112526 | 10 | 0 | 0.0 | 0.0 | 0.00 | 0.00 | 0.00 | 82 | 1015.1 |
| 20260906112030 | 10 | 0 | 0.0 | 0.0 | 0.00 | 0.00 | 0.00 | 82 | 1015.1 |
| 20260906111545 | 10 | 0 | 0.0 | 0.0 | 0.00 | 0.00 | 0.00 | 83 | 1015.1 |
| 20260906111025 | 10 | 0 | 0.0 | 3.2 | 0.00 | 0.00 | 0.00 | 84 | 1015.0 |
| 20260906110526 | 10 | 0 | 0.0 | 3.2 | 0.00 | 0.00 | 0.00 | 85 | 1015.1 |
| 20260906110043 | 10 | 360 | 1.6 | 3.2 | 0.00 | 0.00 | 0.00 | 85 | 1015.0 |
| 20260906105528 | 10 | 0 | 0.0 | 0.0 | 0.00 | 0.00 | 0.00 | 83 | 1015.1 |
| 20260906105026 | 10 | 0 | 0.0 | 4.8 | 0.00 | 0.00 | 0.00 | 82 | 1015.0 |
| 20260906104558 | 10 | 0 | 0.0 | 4.8 | 0.00 | 0.00 | 0.00 | 83 | 1015.1 |
| 20260906104026 | 10 | 360 | 0.0 | 1.6 | 0.00 | 0.00 | 0.00 | 82 | 1015.0 |
| 20260906103526 | 10 | 0 | 0.0 | 0.0 | 0.00 | 0.00 | 0.00 | 80 | 1014.9 |
| 20260906103048 | 10 | 0 | 0.0 | 0.0 | 0.00 | 0.00 | 0.00 | 83 | 1015.0 |
| 20260906102529 | 10 | 0 | 0.0 | 0.0 | 0.00 | 0.00 | 0.00 | 80 | 1015.1 |
| 20260906102027 | 11 | 0 | 0.0 | 0.0 | 0.00 | 0.00 | 0.00 | 79 | 1015.0 |
| 20260906101548 | 11 | 0 | 0.0 | 0.0 | 0.00 | 0.00 | 0.00 | 80 | 1015.1 |
| 20260906101025 | 11 | 0 | 0.0 | 0.0 | 0.00 | 0.00 | 0.00 | 79 | 1015.0 |
| 20260906100526 | 11 | 0 | 0.0 | 0.0 | 0.00 | 0.00 | 0.00 | 79 | 1015.0 |
| 20260906100043 | 11 | 0 | 0.0 | 3.2 | 0.00 | 0.00 | 0.00 | 81 | 1015.0 |
| 20260906095528 | 11 | 0 | 0.0 | 3.2 | 0.00 | 0.00 | 0.00 | 79 | 1015.0 |
| 20260906095026 | 11 | 0 | 0.0 | 3.2 | 0.00 | 0.00 | 0.00 | 78 | 1015.1 |
| 20260906094602 | 11 | 0 | 0.0 | 0.0 | 0.00 | 0.00 | 0.00 | 80 | 1015.0 |
| 20260906094030 | 10 | 0 | 0.0 | 0.0 | 0.00 | 0.00 | 0.00 | 80 | 1015.0 |
| 20260906093525 | 11 | 0 | 0.0 | 0.0 | 0.00 | 0.00 | 0.00 | 78 | 1015.1 |
| 20260906093119 | 11 | 0 | 0.0 | 0.0 | 0.00 | 0.00 | 0.00 | 77 | 1015.1 |
| 20260906092527 | 11 | 0 | 0.0 | 0.0 | 0.00 | 0.00 | 0.00 | 77 | 1015.2 |
| 20260906092026 | 11 | 0 | 0.0 | 0.0 | 0.00 | 0.00 | 0.00 | 76 | 1015.1 |
| 20260906091549 | 11 | 0 | 0.0 | 0.0 | 0.00 | 0.00 | 0.00 | 77 | 1015.1 |
| 20260906091025 | 11 | 0 | 0.0 | 0.0 | 0.00 | 0.00 | 0.00 | 76 | 1015.1 |
| 20260906090528 | 11 | 0 | 0.0 | 0.0 | 0.00 | 0.00 | 0.00 | 79 | 1015.2 |
| 20260906090046 | 11 | 0 | 0.0 | 0.0 | 0.00 | 0.00 | 0.00 | 78 | 1015.3 |
| 20260906085527 | 11 | 0 | 0.0 | 0.0 | 0.00 | 0.00 | 0.00 | 79 | 1015.3 |
| 20260906085025 | 11 | 0 | 0.0 | 0.0 | 0.00 | 0.00 | 0.00 | 77 | 1015.4 |
| 20260906084548 | 11 | 0 | 0.0 | 0.0 | 0.00 | 0.00 | 0.00 | 77 | 1015.5 |
| 20260906084030 | 11 | 0 | 0.0 | 0.0 | 0.00 | 0.00 | 0.00 | 76 | 1015.5 |
| 20260906083526 | 11 | 0 | 0.0 | 0.0 | 0.00 | 0.00 | 0.00 | 76 | 1015.5 |
| 20260906083050 | 11 | 0 | 0.0 | 0.0 | 0.00 | 0.00 | 0.00 | 75 | 1015.6 |
| 20260906082525 | 11 | 0 | 0.0 | 0.0 | 0.00 | 0.00 | 0.00 | 75 | 1015.6 |
| 20260906082033 | 11 | 0 | 0.0 | 0.0 | 0.00 | 0.00 | 0.00 | 76 | 1015.6 |
| 20260906081550 | 11 | 0 | 0.0 | 0.0 | 0.00 | 0.00 | 0.00 | 74 | 1015.7 |
| 20260906081025 | 11 | 0 | 0.0 | 0.0 | 0.00 | 0.00 | 0.00 | 74 | 1015.8 |
| 20260906080526 | 11 | 0 | 0.0 | 0.0 | 0.00 | 0.00 | 0.00 | 73 | 1015.8 |
| 20260906080045 | 11 | 0 | 0.0 | 0.0 | 0.00 | 0.00 | 0.00 | 73 | 1015.8 |
| 20260906075529 | 11 | 0 | 0.0 | 0.0 | 0.00 | 0.00 | 0.00 | 72 | 1015.8 |
| 20260906075029 | 11 | 0 | 0.0 | 0.0 | 0.00 | 0.00 | 0.00 | 72 | 1015.9 |
| 20260906074554 | 12 | 0 | 0.0 | 0.0 | 0.00 | 0.00 | 0.00 | 71 | 1015.9 |
| 20260906074025 | 12 | 0 | 0.0 | 3.2 | 0.00 | 0.00 | 0.00 | 70 | 1016.1 |
| 20260906073525 | 12 | 0 | 0.0 | 4.8 | 0.00 | 0.00 | 0.00 | 69 | 1016.0 |
| 20260906073047 | 12 | 0 | 0.0 | 4.8 | 0.00 | 0.00 | 0.00 | 70 | 1016.0 |
| 20260906072527 | 12 | 360 | 1.6 | 4.8 | 0.00 | 0.00 | 0.00 | 70 | 1016.0 |
| 20260906072025 | 12 | 0 | 0.0 | 0.0 | 0.00 | 0.00 | 0.00 | 70 | 1016.1 |
| 20260906071549 | 12 | 0 | 0.0 | 1.6 | 0.00 | 0.00 | 0.00 | 68 | 1016.1 |
| 20260906071026 | 12 | 0 | 0.0 | 6.4 | 0.00 | 0.00 | 0.00 | 67 | 1016.1 |
| 20260906070525 | 13 | 360 | 1.6 | 6.4 | 0.00 | 0.00 | 0.00 | 67 | 1016.0 |
| 20260906070045 | 13 | 360 | 1.6 | 4.8 | 0.00 | 0.00 | 0.00 | 67 | 1016.2 |
| 20260906065531 | 13 | 360 | 1.6 | 4.8 | 0.00 | 0.00 | 0.00 | 67 | 1016.1 |
| 20260906065026 | 13 | 360 | 0.0 | 4.8 | 0.00 | 0.00 | 0.00 | 67 | 1016.2 |
| 20260906064552 | 13 | 0 | 0.0 | 4.8 | 0.00 | 0.00 | 0.00 | 66 | 1016.4 |
| 20260906064029 | 13 | 360 | 1.6 | 4.8 | 0.00 | 0.00 | 0.00 | 67 | 1016.4 |
| 20260906063528 | 13 | 360 | 1.6 | 4.8 | 0.00 | 0.00 | 0.00 | 66 | 1016.4 |
| 20260906063050 | 13 | 360 | 3.2 | 4.8 | 0.00 | 0.00 | 0.00 | 66 | 1016.5 |
| 20260906062528 | 13 | 0 | 0.0 | 3.2 | 0.00 | 0.00 | 0.00 | 66 | 1016.5 |
| 20260906062028 | 13 | 0 | 0.0 | 3.2 | 0.00 | 0.00 | 0.00 | 65 | 1016.6 |
| 20260906061546 | 13 | 0 | 0.0 | 3.2 | 0.00 | 0.00 | 0.00 | 64 | 1016.7 |
| 20260906061025 | 13 | 0 | 0.0 | 3.2 | 0.00 | 0.00 | 0.00 | 63 | 1016.6 |
| 20260906060532 | 14 | 360 | 0.0 | 4.8 | 0.00 | 0.00 | 0.00 | 63 | 1016.6 |
| 20260906060046 | 14 | 0 | 0.0 | 4.8 | 0.00 | 0.00 | 0.00 | 62 | 1016.6 |
| 20260906055525 | 15 | 360 | 3.2 | 4.8 | 0.00 | 0.00 | 0.00 | 61 | 1016.7 |
| 20260906055028 | 15 | 360 | 3.2 | 4.8 | 0.00 | 0.00 | 0.00 | 61 | 1016.6 |
| 20260906054551 | 15 | 360 | 1.6 | 4.8 | 0.00 | 0.00 | 0.00 | 61 | 1016.7 |
| 20260906054029 | 15 | 0 | 0.0 | 4.8 | 0.00 | 0.00 | 0.00 | 60 | 1016.6 |
| 20260906053527 | 15 | 0 | 0.0 | 4.8 | 0.00 | 0.00 | 0.00 | 59 | 1016.6 |
| 20260906053050 | 15 | 360 | 0.0 | 3.2 | 0.00 | 0.00 | 0.00 | 59 | 1016.7 |
| 20260906052529 | 15 | 0 | 0.0 | 0.0 | 0.00 | 0.00 | 0.00 | 59 | 1016.5 |
| 20260906052029 | 16 | 0 | 0.0 | 1.6 | 0.00 | 0.00 | 0.00 | 59 | 1016.6 |
| 20260906051601 | 15 | 0 | 0.0 | 8.0 | 0.00 | 0.00 | 0.00 | 58 | 1016.7 |
| 20260906051029 | 15 | 0 | 0.0 | 8.0 | 0.00 | 0.00 | 0.00 | 59 | 1016.9 |
| 20260906050525 | 15 | 360 | 3.2 | 6.4 | 0.00 | 0.00 | 0.00 | 61 | 1016.7 |
| 20260906050049 | 14 | 0 | 0.0 | 6.4 | 0.00 | 0.00 | 0.00 | 62 | 1016.6 |
| 20260906045528 | 14 | 360 | 1.6 | 6.4 | 0.00 | 0.00 | 0.00 | 61 | 1016.7 |
| 20260906045028 | 14 | 0 | 0.0 | 6.4 | 0.00 | 0.00 | 0.00 | 61 | 1017.1 |
| 20260906044557 | 14 | 360 | 1.6 | 6.4 | 0.00 | 0.00 | 0.00 | 62 | 1017.3 |
| 20260906044029 | 14 | 360 | 0.0 | 6.4 | 0.00 | 0.00 | 0.00 | 62 | 1017.0 |
| 20260906043526 | 14 | 0 | 0.0 | 0.0 | 0.00 | 0.00 | 0.00 | 62 | 1017.0 |
| 20260906043045 | 14 | 0 | 0.0 | 0.0 | 0.00 | 0.00 | 0.00 | 61 | 1016.9 |
| 20260906042525 | 14 | 0 | 0.0 | 3.2 | 0.00 | 0.00 | 0.00 | 61 | 1016.8 |
| 20260906042025 | 15 | 0 | 0.0 | 4.8 | 0.00 | 0.00 | 0.00 | 60 | 1016.9 |
| 20260906041557 | 14 | 360 | 1.6 | 4.8 | 0.00 | 0.00 | 0.00 | 61 | 1016.9 |
| 20260906041030 | 14 | 360 | 1.6 | 4.8 | 0.00 | 0.00 | 0.00 | 61 | 1016.7 |
| 20260906040527 | 14 | 360 | 0.0 | 4.8 | 0.00 | 0.00 | 0.00 | 61 | 1016.8 |
| 20260906035525 | 15 | 0 | 0.0 | 3.2 | 0.00 | 0.00 | 0.00 | 60 | 1016.8 |
| 20260906035032 | 15 | 0 | 0.0 | 4.8 | 0.00 | 0.00 | 0.00 | 60 | 1016.7 |
| 20260906034551 | 15 | 0 | 1.6 | 4.8 | 0.00 | 0.00 | 0.00 | 59 | 1016.7 |
| 20260906034026 | 15 | 360 | 1.6 | 6.4 | 0.00 | 0.00 | 0.00 | 60 | 1016.7 |
| 20260906033526 | 15 | 360 | 3.2 | 6.4 | 0.00 | 0.00 | 0.00 | 59 | 1016.7 |
| 20260906033050 | 15 | 360 | 1.6 | 4.8 | 0.00 | 0.00 | 0.00 | 59 | 1016.7 |
| 20260906032525 | 15 | 0 | 0.0 | 1.6 | 0.00 | 0.00 | 0.00 | 58 | 1016.6 |
| 20260906032027 | 16 | 0 | 0.0 | 4.8 | 0.00 | 0.00 | 0.00 | 56 | 1016.6 |
| 20260906031553 | 16 | 0 | 0.0 | 4.8 | 0.00 | 0.00 | 0.00 | 56 | 1016.4 |
| 20260906031026 | 16 | 360 | 0.0 | 4.8 | 0.00 | 0.00 | 0.00 | 56 | 1016.4 |
| 20260906030525 | 16 | 360 | 0.0 | 0.0 | 0.00 | 0.00 | 0.00 | 56 | 1016.2 |
| 20260906030052 | 16 | 0 | 0.0 | 4.8 | 0.00 | 0.00 | 0.00 | 55 | 1016.3 |
| 20260906025528 | 16 | 0 | 0.0 | 4.8 | 0.00 | 0.00 | 0.00 | 54 | 1016.2 |
| 20260906025027 | 16 | 360 | 1.6 | 3.2 | 0.00 | 0.00 | 0.00 | 54 | 1016.1 |
| 20260906024551 | 16 | 0 | 0.0 | 4.8 | 0.00 | 0.00 | 0.00 | 53 | 1016.0 |
| 20260906024027 | 17 | 0 | 0.0 | 4.8 | 0.00 | 0.00 | 0.00 | 53 | 1015.9 |
| 20260906023528 | 17 | 0 | 1.6 | 4.8 | 0.00 | 0.00 | 0.00 | 51 | 1016.0 |
| 20260906023044 | 18 | 0 | 0.0 | 4.8 | 0.00 | 0.00 | 0.00 | 50 | 1015.8 |
| 20260906022531 | 18 | 360 | 0.0 | 4.8 | 0.00 | 0.00 | 0.00 | 49 | 1015.8 |
| 20260906022028 | 18 | 360 | 0.0 | 3.2 | 0.00 | 0.00 | 0.00 | 49 | 1015.7 |
| 20260906021547 | 18 | 360 | 0.0 | 4.8 | 0.00 | 0.00 | 0.00 | 48 | 1015.8 |
| 20260906021025 | 19 | 0 | 0.0 | 4.8 | 0.00 | 0.00 | 0.00 | 47 | 1015.6 |
| 20260906020534 | 20 | 360 | 0.0 | 4.8 | 0.00 | 0.00 | 0.00 | 46 | 1015.8 |
| 20260906020046 | 20 | 0 | 0.0 | 0.0 | 0.00 | 0.00 | 0.00 | 44 | 1015.7 |
| 20260906015526 | 21 | 0 | 0.0 | 3.2 | 0.00 | 0.00 | 0.00 | 44 | 1015.6 |
| 20260906015026 | 21 | 0 | 0.0 | 3.2 | 0.00 | 0.00 | 0.00 | 43 | 1015.6 |
| 20260906014633 | 21 | 0 | 0.0 | 6.4 | 0.00 | 0.00 | 0.00 | 42 | 1015.6 |
| 20260906014027 | 22 | 0 | 0.0 | 6.4 | 0.00 | 0.00 | 0.00 | 40 | 1015.6 |
| 20260906013528 | 22 | 0 | 1.6 | 6.4 | 0.00 | 0.00 | 0.00 | 39 | 1015.6 |
| 20260906013059 | 22 | 0 | 1.6 | 6.4 | 0.00 | 0.00 | 0.00 | 39 | 1015.5 |
| 20260906012528 | 23 | 360 | 0.0 | 6.4 | 0.00 | 0.00 | 0.00 | 39 | 1015.6 |
| 20260906012031 | 23 | 360 | 1.6 | 6.4 | 0.00 | 0.00 | 0.00 | 38 | 1015.6 |
| 20260906011554 | 23 | 360 | 3.2 | 6.4 | 0.00 | 0.00 | 0.00 | 38 | 1015.6 |
| 20260906011026 | 23 | 360 | 3.2 | 6.4 | 0.00 | 0.00 | 0.00 | 37 | 1015.5 |
| 20260906010527 | 23 | 0 | 0.0 | 3.2 | 0.00 | 0.00 | 0.00 | 37 | 1015.6 |
| 20260906010053 | 24 | 0 | 0.0 | 6.4 | 0.00 | 0.00 | 0.00 | 37 | 1015.6 |
| 20260906005525 | 24 | 360 | 1.6 | 8.0 | 0.00 | 0.00 | 0.00 | 36 | 1015.5 |
| 20260906005027 | 25 | 0 | 0.0 | 12.9 | 0.00 | 0.00 | 0.00 | 36 | 1015.6 |
| 20260906004610 | 25 | 360 | 3.2 | 22.5 | 0.00 | 0.00 | 0.00 | 35 | 1015.5 |
| 20260906004036 | 25 | 360 | 8.0 | 22.5 | 0.00 | 0.00 | 0.00 | 34 | 1015.3 |
| 20260906003526 | 26 | 53 | 8.0 | 16.1 | 0.00 | 0.00 | 0.00 | 33 | 1015.3 |
| 20260906003108 | 26 | 30 | 4.8 | 19.3 | 0.00 | 0.00 | 0.00 | 33 | 1015.3 |
| 20260906002525 | 26 | 43 | 4.8 | 19.3 | 0.00 | 0.00 | 0.00 | 33 | 1015.2 |
| 20260906002027 | 26 | 342 | 9.7 | 19.3 | 0.00 | 0.00 | 0.00 | 32 | 1015.3 |
| 20260906001551 | 27 | 44 | 8.0 | 20.9 | 0.00 | 0.00 | 0.00 | 33 | 1015.4 |
| 20260906001027 | 27 | 42 | 4.8 | 20.9 | 0.00 | 0.00 | 0.00 | 32 | 1015.4 |
| 20260906000526 | 27 | 56 | 9.7 | 19.3 | 0.00 | 0.00 | 0.00 | 31 | 1015.5 |
| 20260906000047 | 28 | 69 | 8.0 | 16.1 | 0.00 | 0.00 | 0.00 | 31 | 1015.4 |
| 20260905235528 | 28 | 53 | 6.4 | 16.1 | 0.00 | 0.00 | 0.00 | 30 | 1015.3 |
| 20260905235030 | 28 | 59 | 8.0 | 16.1 | 0.00 | 0.00 | 0.00 | 30 | 1015.4 |
| 20260905234544 | 28 | 55 | 8.0 | 14.5 | 0.00 | 0.00 | 0.00 | 30 | 1015.3 |
| 20260905234029 | 28 | 96 | 8.0 | 14.5 | 0.00 | 0.00 | 0.00 | 30 | 1015.3 |
| 20260905233533 | 28 | 51 | 6.4 | 12.9 | 0.00 | 0.00 | 0.00 | 29 | 1015.2 |
| 20260905233050 | 28 | 59 | 6.4 | 14.5 | 0.00 | 0.00 | 0.00 | 30 | 1015.1 |
| 20260905232533 | 28 | 43 | 6.4 | 14.5 | 0.00 | 0.00 | 0.00 | 30 | 1015.3 |
| 20260905232027 | 28 | 28 | 8.0 | 14.5 | 0.00 | 0.00 | 0.00 | 30 | 1015.2 |
| 20260905231549 | 28 | 57 | 4.8 | 16.1 | 0.00 | 0.00 | 0.00 | 31 | 1015.3 |
| 20260905231026 | 28 | 42 | 6.4 | 16.1 | 0.00 | 0.00 | 0.00 | 31 | 1015.3 |
| 20260905230526 | 28 | 61 | 6.4 | 16.1 | 0.00 | 0.00 | 0.00 | 31 | 1015.3 |
| 20260905230051 | 28 | 65 | 4.8 | 14.5 | 0.00 | 0.00 | 0.00 | 29 | 1015.2 |
| 20260905225528 | 28 | 59 | 4.8 | 14.5 | 0.00 | 0.00 | 0.00 | 29 | 1015.3 |
| 20260905225027 | 28 | 47 | 0.0 | 14.5 | 0.00 | 0.00 | 0.00 | 29 | 1015.3 |
| 20260905224549 | 28 | 42 | 4.8 | 14.5 | 0.00 | 0.00 | 0.00 | 29 | 1015.4 |
| 20260905224025 | 28 | 63 | 6.4 | 16.1 | 0.00 | 0.00 | 0.00 | 29 | 1015.4 |
| 20260905223527 | 28 | 88 | 6.4 | 16.1 | 0.00 | 0.00 | 0.00 | 29 | 1015.5 |
| 20260905223046 | 28 | 64 | 8.0 | 16.1 | 0.00 | 0.00 | 0.00 | 29 | 1015.6 |
| 20260905222527 | 28 | 96 | 8.0 | 12.9 | 0.00 | 0.00 | 0.00 | 29 | 1015.6 |
| 20260905222026 | 28 | 121 | 3.2 | 12.9 | 0.00 | 0.00 | 0.00 | 30 | 1015.6 |
| 20260905221610 | 28 | 49 | 3.2 | 12.9 | 0.00 | 0.00 | 0.00 | 29 | 1015.6 |